This demonstration page uses our WeatherBlox Daily Observations layout. Learn more.

Left ArrowRight Arrow

Hourly Observations for March 4, 2022

Temp ( °F °C ) Dew Point ( °F °C ) Humidity (%) Winds ( mph kmh ) Pressure ( in mb ) Visibility ( mi km ) Precip ( " mm )
12:15 am 00:15 Clear 34 1 28 -2 81 81 E 9 15 30.12 1020 10 16 0.00 0.00
12:35 am 00:35 Clear 34 1 28 -2 81 81 E 9 15 30.11 1020 10 16 0.00 0.00
12:55 am 00:55 Clear 34 1 28 -2 81 81 E 8 13 30.10 1019 10 16 0.00 0.00
1:15 am 01:15 Clear 34 1 28 -2 81 81 E 9 15 30.10 1019 10 16 0.00 0.00
1:35 am 01:35 Clear 34 1 28 -2 81 81 E 9 15 30.09 1019 10 16 0.00 0.00
1:55 am 01:55 Clear 36 2 32 0 87 87 ESE 10 17 30.07 1018 10 16 0.00 0.00
2:15 am 02:15 Clear 37 3 32 0 81 81 ESE 15 24 30.05 1018 10 16 0.00 0.00
2:35 am 02:35 Clear 37 3 32 0 81 81 SE 12 19 30.04 1017 10 16 0.00 0.00
2:55 am 02:55 Clear 37 3 32 0 81 81 ESE 10 17 30.03 1017 10 16 0.00 0.00
3:15 am 03:15 Clear 36 2 32 0 87 87 ESE 9 15 30.03 1017 10 16 0.00 0.00
3:35 am 03:35 Clear 36 2 32 0 87 87 ESE 9 15 30.02 1016 10 16 0.00 0.00
3:55 am 03:55 Clear 36 2 32 0 87 87 ESE 9 15 30.01 1016 10 16 0.00 0.00
4:15 am 04:15 Clear 36 2 32 0 87 87 ESE 9 15 30.00 1016 10 16 0.00 0.00
4:35 am 04:35 Clear 34 1 32 0 93 93 ESE 9 15 30.01 1016 10 16 0.00 0.00
4:55 am 04:55 Clear 34 1 30 -1 87 87 ESE 8 13 30.00 1016 10 16 0.00 0.00
5:15 am 05:15 Clear 34 1 32 0 93 93 ESE 8 13 29.99 1015 10 16 0.00 0.00
5:35 am 05:35 Clear 34 1 32 0 93 93 ESE 7 11 29.99 1015 10 16 0.00 0.00
5:55 am 05:55 Clear 34 1 32 0 93 93 ESE 8 13 29.98 1015 10 16 0.00 0.00
6:15 am 06:15 Clear 34 1 32 0 93 93 ESE 5 7 29.99 1015 10 16 0.00 0.00
6:35 am 06:35 Clear 34 1 32 0 93 93 SE 5 7 29.98 1015 10 16 0.00 0.00
6:55 am 06:55 Clear 34 1 32 0 93 93 Calm 29.99 1015 10 16 0.00 0.00
7:15 am 07:15 Sunny 32 0 30 -1 93 93 NW 3 6 30.01 1016 10 16 0.00 0.00
7:35 am 07:35 Sunny 32 0 30 -1 93 93 Calm 30.00 1016 7 11 0.00 0.00
7:55 am 07:55 Sunny with Mist and Fog 30 -1 28 -2 93 93 Calm 30.01 1016 5 8 0.00 0.00
8:15 am 08:15 Sunny 32 0 30 -1 93 93 WNW 6 9 30.00 1016 7 11 0.00 0.00
8:35 am 08:35 Sunny 34 1 32 0 93 93 NW 5 7 29.98 1015 7 11 0.00 0.00
8:55 am 08:55 Sunny 34 1 32 0 93 93 Calm 29.97 1015 7 11 0.00 0.00
9:15 am 09:15 Sunny 36 2 32 0 87 87 Calm 29.96 1014 10 16 0.00 0.00
9:35 am 09:35 Sunny 37 3 32 0 81 81 S 3 6 29.95 1014 10 16 0.00 0.00
9:55 am 09:55 Sunny 39 4 32 0 75 75 Calm 29.92 1013 10 16 0.00 0.00
10:15 am 10:15 Sunny 41 5 32 0 70 70 S 5 7 29.90 1012 10 16 0.00 0.00
10:35 am 10:35 Sunny 46 8 34 1 62 62 S 5 7 29.87 1012 10 16 0.00 0.00
10:55 am 10:55 Sunny 52 11 32 0 47 47 W 8 13 29.84 1011 10 16 0.00 0.00
11:15 am 11:15 Sunny 52 11 32 0 47 47 WSW 8 13 29.84 1011 10 16 0.00 0.00
11:35 am 11:35 Sunny 52 11 32 0 47 47 WNW 7 11 29.83 1010 10 16 0.00 0.00
11:55 am 11:55 Sunny 54 12 32 0 44 44 WSW 7 11 29.82 1010 10 16 0.00 0.00
12:15 pm 12:15 Sunny 55 13 32 0 41 41 WSW 8 13 29.79 1009 10 16 0.00 0.00
12:35 pm 12:35 Sunny 55 13 30 -1 38 38 WSW 10 17 29.78 1009 10 16 0.00 0.00
12:55 pm 12:55 Sunny 55 13 30 -1 38 38 WSW 9 15 29.77 1008 10 16 0.00 0.00
1:15 pm 13:15 Sunny 59 15 30 -1 34 34 SW 10 17 29.75 1007 10 16 0.00 0.00
1:35 pm 13:35 Sunny 59 15 30 -1 34 34 SW 8 13 29.73 1007 10 16 0.00 0.00
1:55 pm 13:55 Sunny 61 16 32 0 34 34 SW 8 13 29.70 1006 10 16 0.00 0.00
2:15 pm 14:15 Sunny 61 16 32 0 34 34 WSW 6 9 29.68 1005 10 16 0.00 0.00
2:35 pm 14:35 Sunny 61 16 32 0 34 34 SW 5 7 29.67 1005 10 16 0.00 0.00
2:55 pm 14:55 Sunny 61 16 32 0 34 34 Calm 29.66 1004 10 16 0.00 0.00
3:15 pm 15:15 Sunny 61 16 32 0 34 34 Calm 29.65 1004 10 16 0.00 0.00
3:35 pm 15:35 Sunny 61 16 32 0 34 34 NNW 3 6 29.64 1004 10 16 0.00 0.00
3:55 pm 15:55 Sunny 61 16 32 0 34 34 NNW 8 13 29.63 1003 10 16 0.00 0.00
4:15 pm 16:15 Sunny 61 16 30 -1 31 31 NNW 8 13 29.63 1003 10 16 0.00 0.00
4:35 pm 16:35 Partly Cloudy 59 15 30 -1 34 34 WNW 5 7 29.66 1004 10 16 0.00 0.00
4:55 pm 16:55 Partly Cloudy 59 15 30 -1 34 34 Calm 29.65 1004 10 16 0.00 0.00
5:15 pm 17:15 Mostly Cloudy 61 16 32 0 34 34 Calm 29.63 1003 10 16 0.00 0.00
5:35 pm 17:35 Partly Cloudy 59 15 30 -1 34 34 NNE 5 7 29.64 1004 10 16 0.00 0.00
5:55 pm 17:55 Sunny 59 15 30 -1 34 34 NE 8 13 29.63 1003 10 16 0.00 0.00
6:15 pm 18:15 Sunny 59 15 30 -1 34 34 NE 6 9 29.63 1003 10 16 0.00 0.00
6:35 pm 18:35 Clear 59 15 32 0 36 36 E 9 15 29.63 1003 10 16 0.00 0.00
6:55 pm 18:55 Clear 55 13 32 0 41 41 E 9 15 29.64 1004 10 16 0.00 0.00
7:15 pm 19:15 Clear 59 15 43 6 55 55 E 8 13 29.62 1003 10 16 0.00 0.00
7:35 pm 19:35 Clear 59 15 45 7 59 59 ESE 6 9 29.61 1003 10 16 0.00 0.00
7:55 pm 19:55 Clear 59 15 45 7 59 59 E 6 9 29.62 1003 10 16 0.00 0.00
8:15 pm 20:15 Clear 55 13 43 6 63 63 Calm 29.63 1004 10 16 0.00 0.00
8:35 pm 20:35 Clear 48 9 36 2 62 62 NNE 8 13 29.66 1004 10 16 0.00 0.00
8:55 pm 20:55 Clear 43 6 32 0 66 66 NNE 8 13 29.68 1005 10 16 0.00 0.00
9:15 pm 21:15 Clear 45 7 34 1 66 66 NNE 6 9 29.67 1005 10 16 0.00 0.00
9:35 pm 21:35 Clear 41 5 32 0 70 70 NNE 5 7 29.69 1005 10 16 0.00 0.00
9:55 pm 21:55 Clear 41 5 34 1 76 76 NNE 5 7 29.69 1005 10 16 0.00 0.00
10:15 pm 22:15 Clear 41 5 32 0 70 70 NNE 9 15 29.70 1006 10 16 0.00 0.00
10:35 pm 22:35 Clear 41 5 32 0 70 70 Calm 29.72 1006 10 16 0.00 0.00
10:55 pm 22:55 Clear 41 5 32 0 70 70 NNW 8 13 29.71 1006 10 16 0.00 0.00
11:15 pm 23:15 Partly Cloudy 41 5 30 -1 66 66 N 6 9 29.70 1006 10 16 0.00 0.00
11:35 pm 23:35 Partly Cloudy 41 5 30 -1 66 66 NW 3 6 29.71 1006 10 16 0.00 0.00
11:55 pm 23:55 Partly Cloudy 41 5 30 -1 66 66 NNW 3 6 29.70 1006 10 16 0.00 0.00

Powered by AerisWeather